TimeEDT,TemperatureF,Dew PointF,Humidity,Sea Level PressureIn,VisibilityMPH,Wind Direction,Wind SpeedMPH,Gust SpeedMPH,PrecipitationIn,Events,Conditions,WindDirDegrees,DateUTC
12:51 AM,75.9,73.0,91,30.26,8.0,Calm,Calm,-,N/A,,Clear,0,2013-07-17 04:51:00
1:51 AM,75.0,72.0,90,30.25,8.0,Calm,Calm,-,N/A,,Clear,0,2013-07-17 05:51:00
2:51 AM,75.0,72.0,90,30.25,7.0,Calm,Calm,-,N/A,,Clear,0,2013-07-17 06:51:00
3:51 AM,73.0,71.1,93,30.25,10.0,Calm,Calm,-,N/A,,Partly Cloudy,0,2013-07-17 07:51:00
4:51 AM,73.0,72.0,96,30.25,9.0,Calm,Calm,-,N/A,,Partly Cloudy,0,2013-07-17 08:51:00
5:51 AM,73.9,72.0,93,30.27,9.0,SSW,3.5,-,N/A,,Partly Cloudy,200,2013-07-17 09:51:00
6:51 AM,73.0,71.1,93,30.28,9.0,Calm,Calm,-,N/A,,Clear,0,2013-07-17 10:51:00
7:51 AM,77.0,73.0,88,30.28,10.0,Calm,Calm,-,N/A,,Clear,0,2013-07-17 11:51:00
8:51 AM,81.0,73.9,79,30.30,10.0,Calm,Calm,-,N/A,,Partly Cloudy,0,2013-07-17 12:51:00
9:51 AM,84.0,75.0,74,30.30,10.0,ENE,3.5,-,N/A,,Scattered Clouds,70,2013-07-17 13:51:00
10:51 AM,88.0,75.0,65,30.29,10.0,Variable,3.5,-,N/A,,Partly Cloudy,0,2013-07-17 14:51:00
11:51 AM,91.0,73.9,57,30.28,10.0,Variable,6.9,-,N/A,,Clear,0,2013-07-17 15:51:00
12:51 PM,91.9,72.0,52,30.27,10.0,NE,6.9,-,N/A,,Clear,40,2013-07-17 16:51:00
1:51 PM,93.0,73.0,52,30.25,10.0,NNE,4.6,-,N/A,,Partly Cloudy,20,2013-07-17 17:51:00
2:51 PM,93.9,72.0,49,30.23,10.0,Variable,5.8,-,N/A,,Scattered Clouds,0,2013-07-17 18:51:00
3:51 PM,93.0,72.0,50,30.20,10.0,NE,4.6,-,N/A,,Partly Cloudy,40,2013-07-17 19:51:00
4:51 PM,91.9,72.0,52,30.17,10.0,NE,5.8,-,N/A,,Scattered Clouds,40,2013-07-17 20:51:00
5:51 PM,91.9,73.0,54,30.17,10.0,NNE,3.5,-,N/A,,Clear,20,2013-07-17 21:51:00
6:51 PM,88.0,75.9,67,30.17,10.0,WNW,5.8,-,N/A,,Clear,290,2013-07-17 22:51:00
7:35 PM,84.2,78.8,84,30.21,10.0,NW,4.6,-,0.01,Thunderstorm,Thunderstorm,310,2013-07-17 23:35:00
7:37 PM,84.2,78.8,84,30.21,1.8,WNW,5.8,-,0.01,Rain-Thunderstorm,Light Thunderstorms and Rain,300,2013-07-17 23:37:00
7:51 PM,80.1,70.0,71,30.18,1.0,WNW,13.8,25.3,0.12,Rain-Thunderstorm,Heavy Thunderstorms and Rain,290,2013-07-17 23:51:00
7:59 PM,78.8,71.6,78,30.21,3.0,Variable,6.9,16.1,0.05,Rain-Thunderstorm,Light Thunderstorms and Rain,0,2013-07-17 23:59:00
8:13 PM,80.6,73.4,79,30.21,10.0,NNW,4.6,-,0.05,Thunderstorm,Thunderstorm,330,2013-07-18 00:13:00
8:27 PM,78.8,75.2,89,30.20,9.0,Calm,Calm,-,0.05,Thunderstorm,Thunderstorm,0,2013-07-18 00:27:00
8:51 PM,78.1,73.0,84,30.17,8.0,Calm,Calm,-,N/A,,Scattered Clouds,0,2013-07-18 00:51:00
9:51 PM,75.9,73.9,94,30.20,8.0,SSW,5.8,-,N/A,,Clear,210,2013-07-18 01:51:00
10:51 PM,75.9,73.9,94,30.20,6.0,SSW,3.5,-,N/A,,Clear,200,2013-07-18 02:51:00
11:51 PM,75.9,73.9,94,30.20,3.0,Calm,Calm,-,N/A,,Clear,0,2013-07-18 03:51:00
11:59 PM,75.2,73.4,94,30.22,2.5,Calm,Calm,-,N/A,,Clear,0,2013-07-18 03:59:00